This is the latest recevied weather packets stored in our database for station/object WX1N. If no packets are shown the sender has not sent any weather packets the latest 10 day(s).
| Time | Temp. | Humidity | Pressure | Rain* | Wind** | Luminosity | Snow |
|---|---|---|---|---|---|---|---|
| 1777056303 | 13.89° C | 38% | 1008.7 hPa | 0 mm | - | - | - |
| 1777056002 | 14.44° C | 34% | 1008.6 hPa | 0 mm | - | - | - |
| 1777055703 | 13.89° C | 35% | 1008.7 hPa | 0 mm | - | - | - |
| 1777055403 | 13.89° C | 36% | 1008.8 hPa | 0 mm | - | - | - |
| 1777055103 | 13.89° C | 37% | 1008.8 hPa | 0 mm | - | - | - |
| 1777054803 | 13.89° C | 38% | 1008.9 hPa | 0 mm | - | - | - |
| 1777054503 | 13.89° C | 41% | 1008.8 hPa | 0 mm | - | - | - |
| 1777054203 | 13.33° C | 38% | 1008.9 hPa | 0 mm | - | - | - |
| 1777053902 | 13.33° C | 40% | 1008.9 hPa | 0 mm | - | - | - |
| 1777053603 | 13.89° C | 39% | 1008.9 hPa | 0 mm | - | - | - |
| 1777053303 | 13.33° C | 41% | 1008.8 hPa | 0 mm | - | - | - |
| 1777053003 | 12.78° C | 39% | 1008.9 hPa | 0 mm | - | - | - |
| 1777052703 | 13.33° C | 38% | 1008.9 hPa | 0 mm | - | - | - |
| 1777052402 | 13.33° C | 43% | 1008.8 hPa | 0 mm | - | - | - |
| 1777052103 | 13.33° C | 41% | 1008.9 hPa | 0 mm | - | - | - |
| 1777051803 | 13.33° C | 36% | 1009 hPa | 0 mm | - | - | - |
| 1777051503 | 13.33° C | 35% | 1009.1 hPa | 0 mm | - | - | - |
| 1777051203 | 13.33° C | 42% | 1009.1 hPa | 0 mm | - | - | - |
| 1777050903 | 13.33° C | 38% | 1009.2 hPa | 0 mm | - | - | - |
| 1777050603 | 13.33° C | 41% | 1009.3 hPa | 0 mm | - | - | - |
| 1777050303 | 13.33° C | 38% | 1009.4 hPa | 0 mm | - | - | - |
| 1777050003 | 12.78° C | 38% | 1009.3 hPa | 0 mm | - | - | - |
| 1777049703 | 12.22° C | 34% | 1009.3 hPa | 0 mm | - | - | - |
| 1777049402 | 12.78° C | 37% | 1009.5 hPa | 0 mm | - | - | - |
| 1777049103 | 12.22° C | 40% | 1009.5 hPa | 0 mm | - | - | - |
* Rain latest hour (hover to see other rain measurements)
** Current wind speed in m/s (hover to see current wind gust speed)